AirNav   Duncan Aviation - Near you to keep you flying
 
 1109 users online  

3AU Augusta Municipal Airport
Augusta, Kansas, USA

GOING TO AUGUSTA?


FAA INFORMATION EFFECTIVE 07 OCTOBER 2021

Location

FAA Identifier: 3AU
Lat/Long: 37-40-17.9000N 097-04-40.3000W
37-40.298333N 097-04.671667W
37.6716389,-97.0778611
(estimated)
Elevation: 1328 ft. / 404.8 m (surveyed)
Variation: 04E (2010)
From city: 5 miles W of AUGUSTA, KS
Time zone: UTC -5 (UTC -6 during Standard Time)
Zip code: 67010

Airport Operations

Airport use: Open to the public
Control tower: no
ARTCC: KANSAS CITY CENTER
FSS: WICHITA FLIGHT SERVICE STATION
NOTAMs facility: ICT (NOTAM-D service available)
Attendance: MON-FRI 0800-1700
Wind indicator: yes
Segmented circle: yes
Lights: ACTVT HIRL RY 18/36; REIL RYS 18 & 36; VASI RY 36; PAPI RY 18 - CTAF.
Beacon: white-green (lighted land airport)
Operates sunset to sunrise.

Airport Communications

CTAF/UNICOM: 122.8
WX AWOS-3P: 124.175 (316-733-6696)
WICHITA APPROACH: 134.8
WICHITA DEPARTURE: 134.8
CLEARANCE DELIVERY: 125.0
WX AWOS-3 at 1K1 (6 nm N): 118.3 (316-530-6004)
WX AWOS-3PT at BEC (7 nm W): 119.45 (316-515-7116)
WX ASOS at AAO (8 nm NW): 134.025 (316-636-2541)
WX AWOS-3P at EQA (14 nm NE): 120.875 (316-322-8095)
WX ASOS at ICT (17 nm W): PHONE 316-945-8022

Nearby radio navigation aids

VOR radial/distance  VOR name  Freq  Var
ICTr093/24.4WICHITA VORTAC113.8007E

Airport Services

Fuel available: 100LL JET-A
100LL:SELF SERVE 100 LL; JET A IS FULL SERVICE.
Parking: hangars and tiedowns
Airframe service: MAJOR
Powerplant service: MAJOR
Bottled oxygen: LOW
Bulk oxygen: NONE

Runway Information

Runway 18/36

Dimensions: 4201 x 60 ft. / 1280 x 18 m
Surface: asphalt, in good condition
Weight bearing capacity: 
PCN 5 /F/C/Y/U
Single wheel: 12.0
Runway edge lights: high intensity
RUNWAY 18  RUNWAY 36
Latitude: 37-40.642790N37-39.952533N
Longitude: 097-04.639873W097-04.703435W
Elevation: 1328.0 ft.1306.4 ft.
Traffic pattern: leftright
Runway heading: 180 magnetic, 184 true000 magnetic, 004 true
Markings: nonprecision, in fair conditionnonprecision, in fair condition
Visual slope indicator: 4-light PAPI on left2-box VASI on left (3.00 degrees glide path)
Runway end identifier lights: yesyes
Touchdown point: yes, no lightsyes, no lights
Obstructions: 35 ft. tree, 980 ft. from runway, 165 ft. right of centerline, 22:1 slope to clearnone

Airport Ownership and Management from official FAA records

Ownership: Publicly-owned
Owner: CITY OF AUGUSTA
113 EAST 6TH AVE., BOX 489
AUGUSTA, KS 67010
Phone 316-775-4510
Manager: CODY SIMS
113 EAST 6TH AVE, PO BOX 489
AUGUSTA, KS 67010
Phone (316) 775-4505
ASSISTANT CITY MANAGER

Airport Operational Statistics

Aircraft based on the field: 60
Single engine airplanes: 50
Multi engine airplanes: 10
    
Aircraft operations: avg 99/day *
58% local general aviation
42% transient general aviation
* for 12-month period ending 08 July 2021

Additional Remarks

FOR SVC AFT HRS CALL (316)-733-1326.
PAEW MOWING SUMMER MONTHS.
RY ENDS LINE OF SITE OBSTRUCTED BY TERRAIN
CALM WIND RUNWAY IS RUNWAY 18
AIRPORT LINE OFFICE PHONE 316-733 1326
FOR CD CTC WICHITA APCH AT 316-350-1520.
5FT DITCH 330 FT N OF APCH END OF RWY 18.

Instrument Procedures

NOTE: All procedures below are presented as PDF files. If you need a reader for these files, you should download the free Adobe Reader.

NOT FOR NAVIGATION. Please procure official charts for flight.
FAA instrument procedures published for use from 07 October 2021 at 0901Z to 04 November 2021 at 0900z.

 
IAPs - Instrument Approach Procedures
RNAV (GPS) RWY 36 **CHANGED**   download (220KB)
VOR/DME-A **CHANGED**   download (176KB)
NOTE: Special Alternate Minimums apply   download (39KB)
NOTE: Special Take-Off Minimums/Departure Procedures apply   download (147KB)

Other nearby airports with instrument procedures:

1K1 - Lloyd Stearman Field Airport (6 nm N)
KBEC - Beech Factory Airport (7 nm W)
KAAO - Colonel James Jabara Airport (8 nm NW)
KCEA - Cessna Aircraft Field Airport (8 nm W)
KIAB - Mc Connell Air Force Base (9 nm W)
KEQA - El Dorado/Capt Jack Thomas Memorial Airport (14 nm NE)
KICT - Wichita Dwight D Eisenhower National Airport (17 nm W)
 
Loc | Ops | Rwys | IFR | FBO | Links
Com | Nav | Svcs | Stats | Notes
Area around 3AU (Augusta Municipal Airport)
 
Road maps at: MapQuest Bing Google
 
Aerial photo
WARNING: Photo may not be current or correct
Aerial photo of 3AU (Augusta Municipal Airport)
Photo taken 27-Aug-2009

Do you have a better or more recent aerial photo of Augusta Municipal Airport that you would like to share? If so, please send us your photo.

 
Sectional chart

 
Airport diagram
CAUTION: Diagram may not be current
Diagram of 3AU (Augusta Municipal Airport)
 
Airport distance calculator
Flying to Augusta Municipal Airport? Find the distance to fly.

From to 3AU

Sunrise and sunset
Times for 21-Oct-2021
 Local
(UTC-5)
 Zulu
(UTC)
Morning civil twilight07:1712:17
Sunrise07:4312:43
Sunset18:4323:43
Evening civil twilight19:0900:09

Current date and time
Zulu (UTC)  21-Oct-2021 12:41:48
Local (UTC-5)  21-Oct-2021 07:41:48
 
METAR
K3AU 211210Z AUTO 31005KT 10SM CLR 05/00 A3022 RMK AO2
K1K1 
6nm N 
211215Z AUTO 32005KT 10SM CLR 04/02 A3022 RMK AO2 T00420015
KBEC 
7nm W 
211215Z AUTO 32003KT 10SM CLR 06/02 A3022 RMK AO2 T00550017
KAAO 
8nm NW 
211154Z AUTO 31006KT 10SM CLR 05/02 A3022 RMK AO2 SLP235 T00500017 10089 20050 53011
KIAB 
10nm W 
211156Z AUTO 34008KT 10SM CLR 06/02 A3021 RMK AO2 SLP234 T00630024 10106 20060 52011
KEQA 
14nm NE 
211215Z AUTO 33005KT 10SM CLR 05/02 A3021 RMK AO2
KICT 
17nm W 
211153Z 33008KT 10SM CLR 06/02 A3021 RMK AO2 SLP232 T00560022 10089 20050 53010
TAF
KIAB 
10nm W 
211000Z 2110/2216 32006KT 9999 SKC QNH3017INS BECMG 2114/2115 34010G15KT 9999 FEW250 QNH3018INS BECMG 2123/2124 VRB06KT 9999 SCT180 QNH3012INS BECMG 2214/2215 21012G18KT 9999 SKC QNH3010INS TX19/2120Z TN06/2112Z
KICT 
17nm W 
211120Z 2112/2212 32006KT P6SM SCT250 FM212200 27006KT P6SM SCT250 FM220300 15006KT P6SM SCT200
NOTAMs
Click for the latest NOTAMs
NOTAMs are issued by the DoD/FAA and will open in a separate window not controlled by AirNav.

 

 
 

FBO, Fuel Providers, and Aircraft Ground Support

  
 Business Name 
 
 Contact 
 
 Services / Description 
 
Fuel Prices
 
Comments
  
Augusta Municipal Airport UNICOM 122.80
316-733-1326
316-733-1327
[web site]
[email]
Augusta Municipal Airport offers ALL the amenities that larger FBO's and Airports do, but without the hassle of the big city delays, access issues and headaches! Augusta Municipal Airport is close to downtown Wichita, with established crew rates for hotels, on-demand catering and a crew car. Augusta offers quick turn around for aircraft seeking to gas and go! Come check us out - you'll be glad you did! www.flyaugustaks.com
More info and photos of Augusta Municipal Airport
 
AirBoss™ fuel program   WSI Pilotbrief   WingPoints™ Rewards   Courtesy car  
 
Phillips 66
100LL Jet A
FS --- $3.25 
SS $4.92 --- 
GUARANTEED
AirBossMEMBER
PRICING
FS --- $3.09 
 
   3 read write
FS=Full service
SS=Self service
Update Fuel Prices
 

Would you like to see your business listed on this page?

 If your business provides an interesting product or service to pilots, flight crews, aircraft, or users of the Augusta Municipal Airport, you should consider listing it here.  To start the listing process, click on the button below
 
Add a business
 

Other Pages about Augusta Municipal Airport

www.flyaugustaks.com
www.augustagov.org/...
 
Update a link
 
Copyright © AirNav, LLC. All rights reserved. Privacy Policy  Contact